THORAD AGENA D DEB, 5025

Orbit data source: Space-Track

THORAD AGENA D DEB, 5025 is space debris in SSO originally from a launch on Wed, 08 Apr 1970 UTC launched from the Air Force Western Test Range (AFWTR). Debris objects in space refer to the collection of defunct objects orbiting the Earth. Examples of debris include non-operational satellites, rocket bodies, and fragments generated from explosions, collisions, or faulty payload assembly.

Loading next visibility...
Identifier
5025, 1970-025HZ
Orbit
SSO
Country
Flag of USUS
Related business
Manufacturer
Unknown
Mission
Spacecraft
Bus & Motor
Unknown
Mass
Unknown
Launch date (UTC)
1970-04-08 (56 years ago)
Launch vehicle
Unknown
Launch site
Air Force Western Test Range (AFWTR)
Object type
Payload
Rocket body
Debris
Shape & HBR
Unknown shape, 0.1 m
Radar Cross Section
Medium (>0.1 m² and <1 m²)

Expand to show TLE details & history
Last TLE update: 8 hours ago

TLE from 8 hours ago
0 THORAD AGENA D DEB
1 05025U 70025HZ  26208.19579012  .00000203  00000-0  38519-3 0  9992
2 05025 100.0665 276.3903 0042801 275.4534  95.1864 13.50850508764800
Epoch: 2026-07-27T04:41Z
TLE epoch observation values (Epoch: 2026-07-27T04:41:56.266Z)
Latitude
10.90795°
Longitude
-100.92745°
Altitude
1,074.17 km
Speed
7.314 km/s
True Right ascension
18h 17m 45s
True Declination
10° 50' 49"
Sunlit
Object was in full shadow at epoch
Visualization orbit readout
Latitude
Unknown
Longitude
Unknown
Altitude
Unknown
Speed
Unknown
Apparent Right ascension
Unknown
Apparent Declination
Unknown
Sunlit
N/A
Visualization observer readout
Local Sidereal Time
02:23:53
Azimuth
Unknown
Elevation
Unknown
Doppler factor
Unknown
Orbital elements
Apogee altitude
1,098.314 km
Perigee altitude
1,034.587 km
Semi-major axis
7,444.587 km
Eccentricity
0.00428
Inclination
100.0665°
RAAN
276.3903°
Arg. of periapsis
275.4534°
True anomaly
95.67461°
Mean anomaly
95.1864°
Eccentric anomaly
95.43053°
Mean motion
3.37895 °/min
Orbital period
106.54 mins
BSTAR
0.00038519
Loading maneuver chart data...
Computing Atmospheric mass density...

Documentation

Showing up to 5 results
|